Location: ??
(30.4860°N, 114.4193°E)
Time: 04:46:47
(UTC+00:00)

Daily predictions for brighter satellites

Satellite Brightness Start Highest point End
(mag) Time Altitude Azimuth Time Altitude Azimuth Time Altitude Azimuth
Cosmos 1655 Rocket 4.3 09:50:55 10° N 09:57:19 78° W 10:03:41 10° S
Cosmos 1331 Rocket 4.3 09:53:20 10° SSW 09:58:29 76° WNW 10:03:39 10° NNE
CORIOLIS 4.1 09:53:49 10° SSE 09:59:06 67° ENE 10:04:24 10° N
Cosmos 1300 2.8 09:55:36 10° S 09:59:17 52° E 10:02:59 10° NNE
Cosmos 1825 Rocket 3.9 09:56:05 10° N 10:00:19 43° E 10:04:29 10° SSE
Cosmos 1703 3.7 10:01:46 10° NNW 10:05:41 69° W 10:09:36 10° S
CZ-4B R/B 2.1 10:03:36 10° N 10:06:42 53° WNW 10:09:43 10° SSW
Aureole 3 Rocket 3.4 10:04:01 10° SSE 10:07:02 31° E 10:10:47 10° NNE
Delta 2 Rocket 4.4 10:02:09 10° WNW 10:07:10 49° N 10:12:36 10° E
Cosmos 1726 Rocket 3.5 10:03:35 10° S 10:07:52 70° E 10:12:12 10° N
Cosmos 2266 Rocket 4.3 10:05:16 10° N 10:11:31 78° W 10:17:52 10° S
Cosmos 1809 Rocket 4.5 10:07:15 10° N 10:13:23 89° E 10:19:28 10° S
Cosmos 1758 Rocket 3.7 10:14:03 10° N 10:18:26 79° W 10:22:44 10° S
Cosmos 2228 3.8 10:15:51 10° SSW 10:19:58 55° W 10:24:09 10° N
Aureole 3 3.0 10:16:25 10° S 10:19:59 53° E 10:23:02 10° NNE
Okean-O 3.7 10:16:53 10° ESE 10:20:23 23° ENE 10:23:54 10° NNE
Cosmos 1606 Rocket 4.4 10:18:43 10° SSW 10:22:57 55° W 10:27:15 10° N
Cosmos 2219 4.3 10:21:03 10° N 10:25:35 23° ENE 10:30:05 10° ESE
USA 281 3.5 10:19:16 10° SSE 10:25:48 74° WSW 10:32:22 10° NNW
Cosmos 1302 Rocket 4.1 10:23:07 10° SSW 10:28:21 81° WNW 10:33:39 10° NNE
CZ-2C R/B 4.1 10:24:21 10° SE 10:29:12 28° ENE 10:34:00 10° NNE
Cosmos 1340 3.4 10:30:50 10° NNE 10:34:09 29° ENE 10:37:28 10° SE
SKYMED 2 4.0 10:32:43 10° N 10:37:02 67° WNW 10:41:19 10° SSW
ASC 2 Rocket 4.2 10:33:47 10° WSW 10:37:46 38° S 10:41:48 15° ESE
ASTRO E2 2.7 10:33:58 10° WSW 10:37:54 70° SSE 10:40:14 23° E
Meteor 2-10 Rocket 3.9 10:32:52 10° SSE 10:37:59 43° E 10:42:55 10° NNE
Cosmos 1939 Rocket 2.7 10:34:28 10° SSE 10:38:27 70° ENE 10:42:23 10° N
Helios 1A Rocket 3.2 10:35:17 10° SE 10:39:12 43° ENE 10:43:06 10° N
Cosmos 2369 4.2 10:34:03 10° S 10:39:14 37° ESE 10:44:26 10° NE
Cosmos 1689 Rocket 3.7 10:42:11 10° N 10:44:50 35° WNW 10:47:30 10° SW
Atlas Centaur 2 3.2 10:36:35 10° WSW 10:44:58 73° SSE 10:50:54 22° E
OAO 3 Rocket 3.3 10:40:37 10° WNW 10:45:22 60° NNE 10:47:55 26° E
S3M 4.1 10:40:21 10° SSE 10:46:12 50° E 10:52:05 10° NNE
MOS 1 Rocket 3.7 10:42:18 10° NNE 10:46:51 42° E 10:51:38 10° S
Cosmos 1455 2.7 10:45:10 10° SSE 10:48:35 35° E 10:50:08 24° NE
Cosmos 220 Rocket 3.9 10:47:15 10° S 10:51:30 63° ESE 10:55:49 10° NNE
Cosmos 1656 4.0 10:46:35 10° SSW 10:52:02 66° WNW 10:57:37 10° NNE
GPS 2-04 Rocket1 3.0 10:48:33 10° SW 10:52:32 56° SSE 10:54:05 34° E
Cosmos 2058 Rocket 3.9 10:49:02 10° SSW 10:53:23 53° W 10:57:47 10° N
Meteor 2-1 Rocket 4.2 10:48:21 10° S 10:53:42 53° E 10:59:03 10° NNE
DMSP B5D1-3 4.5 10:51:54 10° NNE 10:57:01 64° ESE 11:02:06 10° S
BREEZE-M DEB (TANK) 3.8 10:54:12 10° WSW 10:57:30 70° NW 11:07:18 10° NE
Cosmos 1417 Rocket 4.4 10:51:33 10° S 10:57:45 84° E 11:04:03 10° N
CZ-4 R/B 1.2 10:55:54 10° SSE 10:59:47 63° ENE 11:03:38 10° N
CSL-04 Rocket 4.2 10:56:03 13° SE 11:00:28 37° ENE 11:05:30 10° N
Cosmos 1953 Rocket 4.5 10:56:13 10° NNW 11:00:31 51° W 11:04:49 10° SSW
Cosmos 2227 Rocket 2.7 10:56:20 10° N 11:01:29 35° ENE 11:02:42 32° E
Timation 2 Rocket 4.1 10:55:08 10° NNW 11:01:51 77° ENE 11:08:42 10° SSE
Cosmos 2058 4.5 11:03:05 10° N 11:04:34 20° NNE 11:04:34 20° NNE
Cosmos 1992 Rocket 3.9 11:03:51 10° SSW 11:09:02 89° W 11:14:16 10° NNE
H-2A R/B 2.4 11:06:51 21° SE 11:10:04 45° ENE 11:15:14 10° N
Cosmos 1697 Rocket 2.6 11:05:29 10° SSW 11:11:05 90° W 11:16:44 10° NNE
H-2A R/B (2) 4.2 02:37:38 10° SSW 11:12:57 80° S 11:18:38 32° E
Cosmos 44 Rocket 3.1 11:12:51 10° SSW 11:17:29 68° ESE 11:18:23 54° ENE
SL-08 ROCKET BODY 4.3 11:13:02 10° N 11:19:10 79° E 11:25:21 10° S
NOSS 3-3 (A) 4.2 11:15:50 10° SW 11:21:20 60° WNW 11:26:52 13° NNE
NOSS 3-3 (C) 4.2 11:15:54 10° SW 11:21:27 60° WNW 11:26:59 13° NNE
Delta 142 4.2 11:17:22 10° W 11:22:16 67° S 11:23:52 46° SE
Cosmos 1892 3.2 11:27:39 10° NNW 11:31:28 58° W 11:32:56 33° SSW
YAOGAN 1 3.1 11:28:15 10° S 11:32:30 59° W 11:36:46 10° NNW
Cosmos 1980 Rocket 2.0 11:27:32 10° S 11:33:08 70° ESE 11:33:35 66° ENE
Cosmos 1315 Rocket 3.7 11:29:29 10° SSW 11:33:16 48° W 11:35:19 24° NNW
Hubble Space Telescope 3.5 11:36:47 10° SW 11:37:47 11° SSW 11:38:47 10° SSW
CSL-04 Debris 4.1 11:33:48 10° SSE 11:39:13 86° WSW 11:44:41 10° NNW
Cosmos 1812 Rocket 4.0 11:35:50 10° SSW 11:40:12 60° W 11:41:14 46° NNW
OAO 2 Rocket 3.7 11:35:52 10° W 11:40:29 52° NNW 11:40:29 52° NNW
Cosmos 2297 Rocket 2.2 11:35:58 10° NNW 11:41:38 78° WSW 11:43:43 40° S
SeaSat 1 4.5 11:50:01 17° N 11:50:01 17° N 11:51:09 10° N
Milstar 3 2.7 11:41:16 10° W 11:47:56 75° S 11:49:01 63° SE
Delta 2 Rocket 4.1 11:44:38 10° WNW 11:49:38 75° WNW 11:49:38 75° WNW
Cosmos 1745 Rocket 4.3 11:45:06 10° NNW 11:51:19 64° W 11:57:35 10° S
